Location: Newark
(52.8300°N, 8.0000°E)
Time: 15:27:49
(UTC+00:00)

STARLINK-1109 - Pass Details

Date: 01 February 2020
Orbit: 349 x 351 km, 53.0° (Epoch: 21 February)

Event Time Altitude Azimuth Distance (km) Brightness Sun altitude
Rises 17:16:41 0° 283° (WNW) 2,182 7.9 -9.9°
Reaches altitude 10° 17:18:56 10° 268° (W) 1,335 7.1 -10.2°
Maximum altitude 17:21:23 23° 213° (SSW) 808 5.1 -10.6°
Drops below altitude 10° 17:23:50 10° 157° (SSE) 1,330 5.5 -10.9°
Enters shadow 17:26:12 -1° 142° (SE) 2,230 6.5 -11.3°
